Flag for U.S.A. Weather past 2 weeks in Independence, Missouri, U.S.A.

Now
29 °F

Overcast.


Feels Like: 21 °F
Forecast: 29 / 34 °F
Wind: 8 mph from East

Location: Lee's Summit Municipal Airport

Current Time: Dec 17, 2014 at 10:33:59 PM

Latest Report: Dec 17, 2014 at 9:53 PM


Visibility: 10 mi

Pressure: 30.27 "Hg

Humidity: 79%

Dew point: 23 °F

Location of IndependenceLocation

Historic Weather in Independence — Graph

°F

Independence temperature yesterday

Maximum temperature yesterday: 32 °F (at 12:53 AM)
Minimum temperature yesterday: 27 °F (at 7:53 PM)
Average temperature yesterday: 29 °F

Past Weeks' High & Low Weather Summary

 TemperatureHumidityPressure
High63 °F (Dec 14, 2:53 PM)100% (Dec 5, 11:53 PM)30.58 "Hg (Dec 5, 11:53 PM)
Low23 °F (Dec 17, 7:53 AM)28% (Dec 3, 11:53 AM)29.57 "Hg (Dec 15, 12:53 PM)
Average39 °F83%30.22 "Hg
* Reported Dec 2 8:53 PM — Dec 17 8:53 PM, Independence, Weather by CustomWeather, © 2014

Note: Actual official high and low records may vary slightly from our data, if they occured in-between our weather recording intervals... More about our weather records

Advertising

Independence weather history for previous 24 hours

 ConditionsComfort  
Time TempWeatherWind HumidityBarometerVisibility
8:53 PM
Dec 17
29 °FOvercast.6 mph75%30.30 "Hg10 mi
7:53 PM30 °FOvercast.6 mph72%30.30 "Hg10 mi
6:53 PM29 °FOvercast.8 mph72%30.29 "Hg10 mi
5:53 PM30 °FOvercast.7 mph69%30.28 "Hg10 mi
4:53 PM30 °FOvercast.6 mph66%30.28 "Hg10 mi
3:53 PM31 °FOvercast.6 mph64%30.28 "Hg10 mi
2:53 PM30 °FOvercast.5 mph61%30.28 "Hg10 mi
1:53 PM30 °FOvercast.No wind64%30.31 "Hg10 mi
12:53 PM29 °FOvercast.No wind66%30.34 "Hg10 mi
11:53 AM29 °FOvercast.No wind66%30.35 "Hg10 mi
10:53 AM29 °FPartly sunny.5 mph66%30.38 "Hg10 mi
9:53 AM27 °FScattered clouds.6 mph69%30.37 "Hg10 mi
8:53 AM25 °FSunny.5 mph75%30.38 "Hg10 mi
7:53 AM23 °FSunny.3 mph81%30.38 "Hg10 mi
6:53 AM24 °FClear.5 mph77%30.37 "Hg10 mi
5:53 AM24 °FPassing clouds.7 mph77%30.37 "Hg10 mi
4:53 AM24 °FOvercast.7 mph77%30.36 "Hg10 mi
3:53 AM25 °FClear.7 mph75%30.37 "Hg10 mi
2:53 AM25 °FClear.6 mph78%30.38 "Hg10 mi
1:53 AM26 °FOvercast.7 mph74%30.37 "Hg10 mi
12:53 AM27 °FOvercast.9 mph75%30.37 "Hg10 mi
11:53 PM
Dec 16
27 °FOvercast.8 mph75%30.38 "Hg10 mi
10:53 PM27 °FOvercast.8 mph78%30.39 "Hg10 mi
Weather by CustomWeather, © 2014

See weather overviewHow to use our weather pages